Location: Newark
(45.8667°N, 9.7333°E)
Time: 17:55:47
(UTC+00:00)

Transit 4A - Pass Details

Date: 01 February 2020
Orbit: 872 x 973 km, 66.8° (Epoch: 26 February)

Event Time Altitude Azimuth Distance (km) Brightness Sun altitude
Rises 14:23:07 0° 316° (NW) 3,470 10.9 16.4°
Reaches altitude 10° 14:26:08 10° 301° (WNW) 2,530 10.4 16.0°
Maximum altitude 14:30:25 22° 253° (WSW) 1,842 10.8 15.5°
Drops below altitude 10° 14:34:45 10° 206° (SSW) 2,543 11.9 15.0°
Sets 14:37:48 0° 191° (S) 3,493 11.9 14.6°
